Hourly Data Report for April 30, 2016

All times are specified in Local Standard Time (LST). Add 1 hour to adjust for Daylight Saving Time where and when it is observed.

EMERSON AUTO
MANITOBA

49°00'00.000" N
97°14'15.000" W
242.00 m
5020881
71560
WEX

Download Data

Hourly Data (April 2016)
Hourly Data Report for April 30, 2016
Temp Definition
°C
Dew Point Temp Definition
°C
Rel Hum Definition
%
Wind Dir Definition
10's deg

Wind Spd Definition
km/h
Visibility Definition
km
Stn Press Definition
kPa
Hmdx Definition


Wind Chill Definition


Weather Definition


TIME
00:00 4.6 0.1 72 4 10   99.45     LegendNANA
01:00 3.0 -0.3 79 3 6   99.49     LegendNANA
02:00 1.8 -0.8 83 3 8   99.51     LegendNANA
03:00 2.8 -0.6 78 7 9   99.57     LegendNANA
04:00 4.9 -0.1 70 9 12   99.61     LegendNANA
05:00 4.1 0.0 75 10 11   99.68     LegendNANA
06:00 5.0 0.4 72 10 11   99.73     LegendNANA
07:00 7.0 1.4 68 11 11   99.81     LegendNANA
08:00 10.0 2.5 60 10 10   99.85     LegendNANA
09:00 11.9 1.1 48 11 13   99.85     LegendNANA
10:00 12.8 1.0 44 5 17   99.81     LegendNANA
11:00 13.6 -0.5 38 5 22   99.75     LegendNANA
12:00 14.9 -0.3 35 5 25   99.68     LegendNANA
13:00 14.8 0.3 37 2 26   99.59     LegendNANA
14:00 15.5 -0.6 33 6 26   99.59     LegendNANA
15:00 16.5 0.3 33 7 22   99.52     LegendNANA
16:00 16.1 -2.9 27 7 23   99.47     LegendNANA
17:00 16.1 -2.5 28 6 25   99.52     LegendNANA
18:00 15.5 -3.2 27 6 22   99.53     LegendNANA
19:00 14.5 -3.2 29 6 17   99.56     LegendNANA
20:00 11.4 -2.3 38 6 11   99.59     LegendNANA
21:00 11.0 -2.3 39 10 10   99.64     LegendNANA
22:00 8.9 -2.1 46 14 4   99.68     LegendNANA
23:00 3.8 -0.2 75 15 2   99.69     LegendNANA

Notes on Data Quality.

Legend

  • E = Estimated
  • M = Missing
  • NA = Not Available
  • ‡ = Partner data that is not subject to review by the National Climate Archives
Date modified: